Regional Weather Roundup
Issued by NWS

Home | Current Version | Previous Version | Graphics & Text | Print | Product List | Glossary On
Versions: 1 2 3 4 5 6 7 8 9 10 11 12 13 14 15 16 17 18 19 20 21 22 23 24 25 26 27 28 29 30 31 32 33 34 35 36 37 38 39 40 41 42 43 44 45 46 47 48 49 50
680
ASUS44 KMEG 301810
RWRTN
TENNESSEE HOURLY STATE WEATHER ROUNDUP
NATIONAL WEATHER SERVICE MEMPHIS TN
100 PM CDT SUN APR 30 2017

TNZ002-004-019-021-049-052-054-088>092-301900-
WEST TENNESSEE

CITY           SKY/WX    TMP DP  RH WIND       PRES   REMARKS
MEMPHIS INTL   CLOUDY    72  70  93 S12       29.71F
NWS MEMPHIS      N/A     70 N/A N/A MISG        N/A
JACKSON        LGT RAIN  71  69  93 S7        29.75F FOG
SOMERVILLE     MOSUNNY   70  68  94 S16G22    29.73F
UNION CITY     PTSUNNY   73  68  83 S21       29.76S HAZE
BOLIVAR        MOSUNNY   70  66  88 S15G23    29.76S
HUNTINGDON     CLOUDY    75  66  73 S15G22    29.77F
LEXINGTON      PTSUNNY   73  68  83 SE9G16    29.80F
SAVANNAH       MOSUNNY   72  68  88 S13G20    29.81F
$$

TNZ008-025-027-028-033-062-065-066-301900-
NORTH MIDDLE TENNESSEE

CITY           SKY/WX    TMP DP  RH WIND       PRES   REMARKS
NASHVILLE      CLOUDY    82  65  56 S21G30    29.89F
PORTLAND       PTSUNNY   81  66  61 S23G30    29.90F
CLARKSVILLE    CLOUDY    78  65  63 S12G25    29.83F
SMYRNA         PTSUNNY   82  66  58 S16G30    29.90F
COOKEVILLE     PTSUNNY   79  66  65 S9G21     29.97F
GALLATIN       PTSUNNY   82  66  57 S15G21    29.93F
CROSSVILLE     CLOUDY    74  63  68 S14G22    30.06S
$$

TNZ061-075-076-078-094-096-097-301900-
SOUTH MIDDLE TENNESSEE

CITY           SKY/WX    TMP DP  RH WIND       PRES   REMARKS
FAYETTEVILLE   MOSUNNY   79  64  61 S25G39    29.93F
TULLAHOMA      MOSUNNY   79  63  57 S14G31    29.98F
WINCHESTER     PTSUNNY   79  66  65 S14       29.99F
MCMINNVILLE    MOSUNNY   81  66  61 S9        29.98F
COLUMBIA       PTSUNNY   79  73  83 S12       29.87F
SHELBYVILLE    PTSUNNY   81  66  61 S16G28    29.94F
$$

TNZ017-018-042-046-047-301900-
NORTHEAST TENNESSEE

CITY           SKY/WX    TMP DP  RH WIND       PRES   REMARKS
TRI CITIES     PTSUNNY   83  56  39 SW16G23   30.11F
ELIZABETHTON   MOSUNNY   82  57  42 S8G17     30.10F
$$

TNZ012-013-036-069-073-074-301900-
CENTRAL EAST TENNESSEE

CITY           SKY/WX    TMP DP  RH WIND       PRES   REMARKS
KNOXVILLE      MOSUNNY   82  59  45 SW10      30.03F
OAK RIDGE      MOSUNNY   85  59  41 S10G21    30.04F
DOWNTOWN KNOXV SUNNY     86  61  42 SW10G18   30.03F
GATLINBURG     MOSUNNY   86  55  35 SW10      30.03F
MORRISTOWN     SUNNY     84  54  34 S15       30.05F
JACKSBORO      MOSUNNY   81  61  50 S15G26    30.06F
$$

TNZ083-085-099-301900-
SOUTHEAST TENNESSEE

CITY           SKY/WX    TMP DP  RH WIND       PRES   REMARKS
CHATTANOOGA    CLOUDY    80  65  59 S15G23    30.02F
$$

SKY/WX REPORTED AS FAIR MEANS FEW OR NO CLOUDS BELOW
12 THOUSAND FEET.





USA.gov is the U.S. government's official web portal to all federal, state and local government web resources and services.